Overview Statistics Trail Chart Weather Telemetry Raw packets
 

This is the latest recevied weather packets stored in our database for station/object EA1IWF-10. If no packets are shown the sender has not sent any weather packets the latest 10 day(s).

<< 1 2 3 4 5 6 >>
Time Temp. Humidity Pressure Rain* Wind** Luminosity Snow
1788467401 32.22° C 17% 1025.9 hPa - - - -
1788466500 32.22° C 17% 1025.8 hPa - - - -
1788465618 32.78° C 17% 1025.7 hPa - - - -
1788464699 32.78° C 17% 1025.4 hPa - - - -
1788463798 33.89° C 17% 1025.3 hPa - - - -
1788462897 34.44° C 15% 1025.2 hPa - - - -
1788461996 34.44° C 15% 1025 hPa - - - -
1788461095 35.56° C 14% 1025 hPa - - - -
1788460194 36.11° C 14% 1025.1 hPa - - - -
1788459294 37.22° C 14% 1025.1 hPa - - - -
1788458393 38.33° C 13% 1025.1 hPa - - - -
1788457492 40° C 12% 1025 hPa - - - -
1788456591 42.22° C 12% 1025 hPa - - - -
1788455690 44.44° C 11% 1025 hPa - - - -
1788454789 44.44° C 11% 1025 hPa - - - -
1788453888 45.56° C 10% 1025.1 hPa - - - -
1788452987 46.67° C 10% 1025.1 hPa - - - -
1788452087 46.67° C 9% 1025.2 hPa - - - -
1788451186 46.11° C 9% 1025.1 hPa - - - -
1788450285 48.33° C 9% 1025.2 hPa - - - -
1788449384 47.22° C 9% 1025.3 hPa - - - -
1788448483 48.33° C 9% 1025.3 hPa - - - -
1788447583 47.78° C 10% 1025.5 hPa - - - -
1788446682 46.67° C 11% 1025.7 hPa - - - -
1788445781 39.44° C 16% 1025.9 hPa - - - -

* Rain since midnight (hover to see other rain measurements)
** Current wind speed in m/s (hover to see current wind gust speed)